Vilalleons





Hora UTC 10:25
Temperatura 17.2 ºC
Humitat 76.0 %
Pressió 1011.5 hPa
Pluja 1.6 mm
Velocitat vent 4.8 km/h
Direcció vent ESE

Dades diàries 2021-05-14



Hora UTC (hivern +1h; estiu +2h)
Temperatura (ºC) Humitat (%) Pressió (hPa) Velocitat vent (km/h) Precipitació (mm)
Hora UTC Aire Humitat Pressió Vel. Dir. Vel. Max Dir. Intent. màx 5 min.
00:05 10.8 85.0 1009.9 0.0 WNW 0.0 0.0
00:10 10.9 86.0 1010.2 1.6 WNW 4.8 0.0
00:15 11.0 86.0 1009.9 0.0 WNW 3.2 0.0
00:20 11.1 86.0 1009.9 0.0 WNW 1.6 0.0
00:25 11.1 86.0 1009.9 1.6 WNW 3.2 0.0
00:30 11.1 86.0 1009.8 0.0 WNW 3.2 0.0
00:35 11.2 86.0 1009.8 0.0 WNW 1.6 0.0
00:40 11.2 86.0 1009.7 0.0 WNW 1.6 0.0
00:45 11.3 87.0 1009.9 0.0 WNW 1.6 0.0
00:50 11.2 86.0 1009.7 0.0 WNW 1.6 0.0
00:55 11.2 87.0 1009.7 1.6 WNW 3.2 0.0
01:00 11.2 86.0 1009.8 0.0 WNW 3.2 0.0
01:05 11.3 86.0 1009.6 0.0 WNW 1.6 0.0
01:10 11.2 86.0 1009.6 1.6 WNW 1.6 0.0
01:15 11.3 87.0 1009.5 1.6 WNW 1.6 0.0
01:20 11.3 87.0 1009.6 0.0 WNW 1.6 0.0
01:25 11.3 87.0 1009.7 0.0 WNW 3.2 0.0
01:30 11.3 88.0 1009.5 0.0 WNW 3.2 0.0
01:35 11.3 88.0 1009.5 0.0 WNW 0.0 0.0
01:40 11.3 88.0 1009.4 0.0 WNW 3.2 0.0
01:45 11.3 88.0 1009.4 0.0 WNW 3.2 0.0
01:50 11.3 87.0 1009.2 1.6 WNW 3.2 0.0
01:55 11.3 88.0 1009.2 1.6 WNW 3.2 0.0
02:00 11.2 87.0 1009.2 1.6 WNW 1.6 0.0
02:05 11.2 88.0 1009.3 0.0 WNW 1.6 0.0
02:10 11.2 88.0 1009.4 0.0 WNW 1.6 0.0
02:15 11.2 87.0 1009.3 0.0 WNW 1.6 0.0
02:20 11.2 88.0 1009.2 1.6 WNW 1.6 0.0
02:25 11.2 88.0 1009.3 1.6 WNW 1.6 0.0
02:30 11.2 88.0 1009.1 0.0 WNW 1.6 0.0
02:35 11.2 89.0 1009.1 0.0 WNW 1.6 0.0
02:40 11.2 88.0 1009.1 0.0 WNW 0.0 0.0
02:45 11.2 88.0 1009.1 0.0 WNW 0.0 0.0
02:50 11.1 88.0 1009.1 0.0 WNW 0.0 0.0
02:55 11.1 88.0 1009.0 0.0 WNW 0.0 0.0
03:00 11.1 89.0 1009.0 0.0 WNW 0.0 0.0
03:05 11.1 89.0 1009.0 1.6 WNW 1.6 0.0
03:10 11.1 89.0 1009.0 0.0 WNW 1.6 0.0
03:15 11.0 89.0 1009.1 0.0 WNW 1.6 0.0
03:20 10.9 89.0 1009.0 1.6 WNW 1.6 0.0
03:25 10.9 90.0 1009.1 1.6 WNW 3.2 0.0
03:30 10.9 89.0 1009.0 1.6 WNW 3.2 0.0
03:35 10.9 88.0 1009.1 0.0 WNW 3.2 0.0
03:40 10.9 89.0 1009.2 0.0 WNW 1.6 0.0
03:45 10.9 89.0 1009.3 1.6 WNW 1.6 0.0
03:50 10.9 89.0 1009.2 0.0 WNW 1.6 0.0
03:55 10.9 90.0 1009.3 0.0 WNW 1.6 0.0
04:00 10.9 90.0 1009.2 1.6 WNW 1.6 0.0
04:05 10.9 89.0 1009.1 1.6 WNW 3.2 0.0
04:10 10.8 90.0 1009.3 3.2 WNW 3.2 0.0
04:15 10.8 90.0 1009.3 1.6 WNW 3.2 0.0
04:20 10.8 90.0 1009.3 0.0 WNW 3.2 0.0
04:25 10.9 90.0 1009.2 0.0 WNW 3.2 0.0
04:30 10.8 90.0 1009.4 0.0 WNW 3.2 0.0
04:35 10.8 90.0 1009.2 0.0 WNW 1.6 0.0
04:40 10.8 91.0 1009.1 0.0 WNW 1.6 0.0
04:45 10.8 91.0 1009.2 0.0 WNW 1.6 0.0
04:50 10.8 90.0 1009.1 0.0 SE 6.4 0.0
04:55 10.8 90.0 1009.2 3.2 SE 4.8 0.0
05:00 10.8 89.0 1009.1 1.6 SSW 4.8 0.0
05:05 10.8 89.0 1009.3 1.6 SSE 4.8 0.0
05:10 10.8 88.0 1009.4 1.6 SE 4.8 0.0
05:15 10.9 88.0 1009.4 0.0 SSE 8.0 0.0
05:20 11.0 87.0 1009.6 1.6 SW 4.8 0.0
05:25 11.1 87.0 1009.7 0.0 SSW 4.8 0.0
05:30 11.1 87.0 1009.7 3.2 SE 4.8 0.0
05:35 11.2 88.0 1009.5 3.2 SE 6.4 0.0
05:40 11.2 88.0 1009.6 4.8 ESE 6.4 0.0
05:45 11.2 87.0 1009.6 3.2 SSE 6.4 0.0
05:50 11.3 88.0 1009.7 0.0 S 9.7 0.0
05:55 11.3 88.0 1009.7 1.6 SW 6.4 0.0
06:00 11.4 87.0 1009.7 1.6 SW 3.2 0.0
06:05 11.4 87.0 1009.9 0.0 WSW 4.8 0.0
06:10 11.4 86.0 1009.9 0.0 WSW 4.8 0.0
06:15 11.6 88.0 1010.0 0.0 WSW 4.8 0.0
06:20 11.5 88.0 1009.9 1.6 WNW 4.8 0.0
06:25 11.5 88.0 1010.1 0.0 WNW 4.8 0.0
06:30 11.5 90.0 1010.2 0.0 WNW 3.2 0.0
06:35 11.5 90.0 1010.2 0.0 WNW 3.2 0.0
06:40 11.5 90.0 1010.2 0.0 WNW 3.2 0.0
06:45 11.3 91.0 1010.3 1.6 WNW 3.2 1.0
06:50 11.3 91.0 1010.4 0.0 WNW 3.2 0.0
06:55 11.3 92.0 1010.3 0.0 WNW 4.8 0.0
07:00 11.4 92.0 1010.4 3.2 W 4.8 0.0
07:05 11.4 92.0 1010.6 1.6 WNW 4.8 0.0
07:10 11.3 92.0 1010.6 1.6 S 6.4 0.0
07:15 11.2 92.0 1010.8 1.6 N 8.0 0.0
07:20 11.2 92.0 1010.7 4.8 SSW 8.0 0.0
07:25 10.9 91.0 1010.8 1.6 S 8.0 0.2
07:30 10.8 92.0 1010.8 4.8 W 8.0 0.2
07:35 10.6 92.0 1010.8 4.8 SSE 11.3 0.0
07:40 10.6 92.0 1010.8 3.2 WSW 17.7 0.0
07:45 10.6 93.0 1010.8 3.2 S 16.1 0.2
07:50 10.6 93.0 1010.8 4.8 E 8.0 0.0
07:55 11.0 95.0 1010.9 0.0 E 12.9 0.0
08:00 11.3 94.0 1010.9 1.6 SSE 19.3 0.0
08:05 11.8 95.0 1011.2 1.6 SW 9.7 0.0
08:10 12.3 95.0 1011.3 3.2 SSW 11.3 0.0
08:15 12.3 94.0 1011.2 1.6 W 11.3 0.0
08:20 12.7 94.0 1011.3 3.2 SW 9.7 0.0
08:25 12.8 92.0 1011.3 4.8 WSW 9.7 0.0
08:30 13.0 92.0 1011.2 6.4 WSW 8.0 0.0
08:35 13.2 92.0 1011.3 4.8 WNW 11.3 0.0
08:40 13.6 92.0 1011.2 9.7 SSW 9.7 0.0
08:45 13.9 91.0 1011.3 1.6 SW 9.7 0.0
08:50 14.1 89.0 1011.2 3.2 WSW 8.0 0.0
08:55 14.1 88.0 1011.3 4.8 ESE 9.7 0.0
09:00 14.4 91.0 1011.2 1.6 SSE 9.7 0.0
09:05 14.7 87.0 1011.2 9.7 SSW 9.7 0.0
09:10 14.8 87.0 1011.3 1.6 SW 11.3 0.0
09:15 14.9 87.0 1011.4 1.6 SW 9.7 0.0
09:20 14.6 84.0 1011.4 6.4 SW 9.7 0.0
09:25 14.4 81.0 1011.5 1.6 SSW 9.7 0.0
09:30 14.5 85.0 1011.4 4.8 SSE 11.3 0.0
09:35 14.8 86.0 1011.4 6.4 ESE 14.5 0.0
09:40 15.2 85.0 1011.5 11.3 SW 19.3 0.0
09:45 15.5 86.0 1011.6 1.6 WSW 19.3 0.0
09:50 15.7 83.0 1011.6 6.4 SW 16.1 0.0
09:55 15.8 81.0 1011.6 4.8 SW 14.5 0.0
10:00 15.8 76.0 1011.5 4.8 SW 12.9 0.0
10:05 16.1 76.0 1011.6 1.6 SSW 12.9 0.0
10:10 16.5 77.0 1011.6 1.6 SW 9.7 0.0
10:15 16.9 80.0 1011.4 4.8 W 11.3 0.0
10:20 17.2 80.0 1011.5 4.8 ESE 14.5 0.0
10:25 17.2 76.0 1011.5 4.8 ESE 14.5 0.0
Màxima 17.3 95.0 1011.6 11.3 SW 19.3 1.0
Mínima 10.5 76.0 1009.0
Total 1.6